#timestamp,LO_Frequency,Hit,StdDev 
1621998015.4,286047000.2,N
1621998035.3,286046997.3,P
1621998055.1,286046995.5,P
1621998075.9,286046994.9,N
1621998095.7,286046995.5,N
1621998115.5,286046997.1,N
1621998135.4,286046997.6,N
1621998155.2,286046997.7,N
1621998175.0,286046997.3,N
1621998176.0,286046997.3,N
1621998195.8,286046997.7,N
1621998215.6,286046997.8,N
1621998235.5,286046997.3,N
1621998255.3,286046996.7,N
1621998275.1,286046999.5,N
1621998295.9,286046998.7,N
1621998315.7,286046998.3,N
1621998335.6,286046998.7,N
1621998355.4,286046999.6,N
1621998375.2,286046999.1,N
1621998395.1,286046999.0,N
1621998396.0,286046999.0,N
1621998415.8,286046998.5,N
1621998435.6,286047001.2,N
1621998455.5,286046998.5,N
1621998475.3,286046999.4,N
1621998495.2,286046998.9,N
1621998515.9,286046999.1,N
1621998535.7,286046998.5,N
1621998555.6,286046998.4,N
1621998575.4,286046998.2,N
1621998595.2,286046999.6,N
1621998615.1,286046998.7,N
1621998616.0,286046998.7,N
1621998635.8,286046999.1,N
1621998655.7,286046996.6,Y
1621998675.5,286047000.9,P
1621998695.3,286047001.0,N
1621998715.2,286047000.9,N
1621998735.0,286047000.7,N
1621998735.9,286047000.7,N
1621998755.8,286047000.3,N
1621998775.6,286047000.9,N
1621998795.4,286046999.8,N
1621998815.3,286047000.6,N
1621998835.1,286047000.3,N
1621998855.8,286047000.4,N
1621998875.7,286047000.6,N
1621998895.5,286047000.2,N
1621998915.4,286047002.6,Y
1621998935.2,286047000.0,P
1621998955.0,286047002.7,P
1621998955.9,286047002.7,N
1621998975.8,286047001.5,N
1621998995.6,286047002.5,N
1621999015.4,286047002.8,N
1621999035.3,286047001.6,N
1621999055.1,286047000.0,N
1621999075.9,286047002.3,N
1621999095.7,286046999.8,N
1621999115.5,286047002.1,N
1621999135.4,286047001.6,N
1621999155.2,286047003.7,Y
1621999175.0,286047002.8,P
1621999175.9,286047002.8,P
1621999195.8,286047002.7,P
1621999215.6,286047001.6,N
1621999235.5,286047002.1,Y
1621999255.3,286047000.8,P
1621999275.1,286046998.6,N
1621999295.9,286046998.3,N
1621999315.7,286047000.3,N
1621999335.6,286046999.8,N
1621999355.4,286047000.9,N
1621999375.2,286047000.8,N
1621999395.1,286046998.3,N
1621999396.0,286046998.3,N
1621999415.8,286046998.2,N
1621999435.6,286046998.2,N
1621999455.5,286047000.5,N
1621999475.3,286047000.5,N
1621999495.2,286046998.9,N
1621999515.9,286046998.7,N
1621999535.7,286046998.1,N
1621999555.6,286047000.7,N
1621999575.4,286047000.0,N
1621999595.2,286047000.3,N
1621999615.1,286047001.2,N
1621999616.0,286047001.2,N
1621999635.8,286046998.3,N
1621999655.7,286046999.9,N
1621999675.5,286047000.1,N
1621999695.4,286047002.7,N
1621999715.2,286046999.7,N
1621999735.0,286047002.4,N
1621999735.9,286047002.4,N
1621999755.8,286047000.1,N
1621999775.6,286047001.5,N
1621999795.4,286047001.7,N
1621999815.3,286047004.0,N
1621999835.1,286047003.3,N
1621999855.9,286047005.4,Y
1621999875.7,286047003.4,P
1621999895.5,286047003.7,N
1621999915.4,286047003.5,N
1621999935.2,286047005.1,Y
1621999955.1,286047001.3,P
1621999956.0,286047001.3,N
1621999975.8,286047003.9,P
1621999995.6,286047005.1,Y
1622000015.5,286047002.0,P
1622000035.3,286047000.9,P
1622000055.1,286047000.8,N
1622000075.9,286047000.9,N
1622000095.7,286046998.7,N
1622000115.6,286046998.3,N
1622000135.4,286046998.1,N
1622000155.2,286047002.4,N
1622000175.1,286047000.9,N
1622000176.0,286047000.9,N
1622000195.8,286047002.6,N
1622000215.7,286047000.0,N
1622000235.5,286047000.7,N
1622000255.3,286046998.4,N
1622000275.2,286047002.2,N
1622000295.9,286047002.8,N
1622000315.7,286047000.4,N
1622000335.6,286047001.1,N
1622000355.4,286047000.7,N
1622000375.3,286047001.8,N
1622000395.1,286047001.5,N
1622000396.0,286047001.5,N
1622000415.8,286046999.8,N
1622000435.7,286047001.5,N
1622000455.5,286047001.4,N
1622000475.3,286047002.7,N
1622000495.2,286047002.4,N
1622000515.0,286047001.7,N
1622000515.9,286047001.7,N
1622000535.8,286047004.1,Y
1622000555.6,286047002.0,P
1622000575.4,286047003.9,P
1622000595.3,286047003.6,P
1622000615.1,286047002.9,N
1622000635.9,286047003.5,Y
1622000655.7,286047000.5,P
1622000675.5,286047000.1,N
1622000695.4,286046998.7,N
1622000715.2,286047001.2,N
1622000735.0,286046998.2,N
1622000735.9,286046998.2,N
1622000755.8,286047000.6,N
1622000775.6,286047000.9,N
1622000795.5,286047000.5,N
1622000815.3,286047002.6,N
1622000835.1,286047000.2,N
1622000855.9,286047001.0,N
1622000875.7,286046998.6,N
1622000895.5,286046999.4,N
1622000915.4,286046996.6,N
1622000935.2,286046999.7,N
1622000955.1,286047002.7,N
1622000956.0,286047002.7,N
1622000975.8,286047002.2,N
1622000995.6,286047001.1,N
1622001015.5,286046996.9,N
1622001035.3,286046997.4,N
1622001055.1,286046999.6,N
1622001075.9,286046997.2,N
1622001095.7,286046998.5,N
1622001115.6,286046997.0,N
1622001135.4,286046999.3,N
1622001155.2,286046999.1,N
1622001175.1,286046997.0,N
1622001176.0,286046997.0,N
1622001195.8,286046997.7,N
1622001215.7,286046999.2,N
1622001235.5,286046996.8,N
1622001255.3,286046998.3,N
1622001275.2,286046998.6,N
1622001295.0,286046996.9,N
1622001295.9,286046996.9,N
1622001315.7,286046998.8,N
1622001335.6,286046996.9,N
1622001355.4,286046997.2,N
1622001375.3,286046998.4,N
1622001395.1,286046998.6,N
1622001396.0,286046998.6,N
1622001415.8,286046998.8,N
1622001435.7,286046999.0,N
1622001455.5,286046999.3,N
1622001475.3,286046998.6,N
1622001495.2,286046998.8,N
1622001515.0,286046998.1,N
1622001515.9,286046998.1,N
1622001535.8,286046998.8,N
1622001555.6,286046998.7,N
1622001575.4,286046998.4,N
1622001595.3,286046998.1,N
